This is the latest recevied weather packets stored in our database for station/object N4OOJ-13. If no packets are shown the sender has not sent any weather packets the latest 10 day(s).
| Time | Temp. | Humidity | Pressure | Rain* | Wind** | Luminosity | Snow |
|---|---|---|---|---|---|---|---|
| 1787838030 | 28.89° C | 83% | 1017.8 hPa | 0 mm | - | - | - |
| 1787837423 | 28.89° C | 84% | 1017.7 hPa | 0 mm | - | - | - |
| 1787836819 | 27.78° C | 90% | 1017.8 hPa | 0 mm | - | - | - |
| 1787836231 | 26.67° C | 96% | 1018 hPa | 0 mm | - | - | - |
| 1787835620 | 25° C | 99% | 1018.1 hPa | 0 mm | - | - | - |
| 1787835032 | 25° C | 99% | 1018.1 hPa | 0 mm | - | - | - |
| 1787834430 | 24.44° C | 99% | 1018.1 hPa | 0 mm | - | - | - |
| 1787833830 | 25° C | 99% | 1018 hPa | 0 mm | - | - | - |
| 1787833229 | 24.44° C | 99% | 1017.9 hPa | 0 mm | - | - | - |
| 1787832627 | 23.89° C | 99% | 1017.9 hPa | 0 mm | - | - | - |
| 1787832025 | 23.33° C | 99% | 1017.9 hPa | 0 mm | - | - | - |
| 1787831419 | 22.78° C | 99% | 1017.7 hPa | 0 mm | - | - | - |
| 1787830827 | 22.22° C | 99% | 1017.6 hPa | 0 mm | - | - | - |
| 1787830227 | 22.22° C | 99% | 1017.6 hPa | 0 mm | - | - | - |
| 1787829617 | 22.22° C | 99% | 1017.2 hPa | 0 mm | - | - | - |
| 1787829031 | 22.22° C | 99% | 1017.1 hPa | 0 mm | - | - | - |
| 1787828424 | 22.22° C | 99% | 1017 hPa | 0 mm | - | - | - |
| 1787827822 | 22.22° C | 99% | 1017 hPa | 0 mm | - | - | - |
| 1787827221 | 22.22° C | 99% | 1016.8 hPa | 0 mm | - | - | - |
| 1787826619 | 22.22° C | 99% | 1016.7 hPa | 0 mm | - | - | - |
| 1787826026 | 22.22° C | 99% | 1016.6 hPa | 0 mm | - | - | - |
| 1787825419 | 22.22° C | 99% | 1016.6 hPa | 0 mm | - | - | - |
| 1787824819 | 22.22° C | 99% | 1016.6 hPa | 0 mm | - | - | - |
| 1787824218 | 22.22° C | 99% | 1016.6 hPa | 0 mm | - | - | - |
| 1787823618 | 22.22° C | 99% | 1016.8 hPa | 0 mm | - | - | - |
* Rain latest hour (hover to see other rain measurements)
** Current wind speed in m/s (hover to see current wind gust speed)